Regional Weather Roundup
Issued by NWS

Home | Current Version | Previous Version | Text Only | Print | Product List | Glossary On
Versions: 1 2 3 4 5 6 7 8 9 10 11 12 13 14 15 16 17 18 19 20 21 22 23 24 25 26 27 28 29 30 31 32 33 34 35 36 37 38 39 40 41 42 43 44 45 46 47 48 49 50
000
ASUS42 KFFC 280503
RWRGA
WEATHER ROUNDUP FOR GEORGIA
NATIONAL WEATHER SERVICE PEACHTREE CITY GA
100 AM EDT THU AUG 28 2014

NOTE: "FAIR" INDICATES FEW OR NO CLOUDS BELOW 12,000 FEET WITH NO
SIGNIFICANT WEATHER AND/OR OBSTRUCTIONS TO VISIBILITY.

* = USE WITH CAUTION. THE STATIONS MARKED WITH AN ASTERISK MAY NOT
REPORT WEATHER SUCH AS PRECIPITATION, FOG, OR THUNDER AND ARE NOT
QUALITY CONTROLLED BY NWS.

THE REMARK "TC" DENOTES TEMPERATURE READING IN DEGREES CELSIUS.

GAZ001>058-280600-
NORTH GEORGIA

CITY           SKY/WX    TMP DP  RH WIND       PRES   REMARKS
ATLANTA        PTCLDY    75  63  66 CALM      30.06S
ATHENS         CLEAR     66  59  78 CALM      30.04F
CHAMBLEE       CLEAR     68  63  84 CALM      30.06S
PEACHTREE CITY CLEAR     65  63  93 CALM      30.06F
ROME           CLEAR     67  64  90 CALM      30.05S
WEST ATLANTA   CLEAR     68  64  87 CALM      30.05F
GAINESVILLE    CLEAR     73  64  73 N3        30.09S
CARTERSVILLE   CLEAR     65  62  90 CALM      30.06S


CITY           SKY/WX    TMP DP  RH WIND       PRES   REMARKS
DALTON*        CLEAR     66  66 100 CALM      30.06S
MARIETTA       CLEAR     69  64  84 CALM      30.06S
$$

GAZ059>098-102>109-280600-
CENTRAL GEORGIA

CITY           SKY/WX    TMP DP  RH WIND       PRES   REMARKS
AUGUSTA-BUSH   CLEAR     63  59  87 CALM      30.01S
AUGUSTA-DANIEL CLEAR     78  56  46 E6        30.03S
COLUMBUS       CLEAR     73  62  68 CALM      30.03R
MACON          CLEAR     65  63  93 CALM      30.03R
ROBINS AFB     CLEAR     67  64  91 SE5       30.03R


CITY           SKY/WX    TMP DP  RH WIND       PRES   REMARKS
LAGRANGE*      CLEAR     68  66  94 CALM      30.06R
SYLVANIA*      CLEAR     67  65  94 CALM      30.03S
$$

GAZ099>101-110>166-280600-
SOUTH GEORGIA

CITY           SKY/WX    TMP DP  RH WIND       PRES   REMARKS
SAVANNAH       CLEAR     71  65  81 CALM      30.02S
VALDOSTA       CLEAR     71  65  81 SE5       30.02R
ALMA           CLEAR     66  64  93 CALM      30.02S
ST SIMONS      CLEAR     76  67  73 SE3       30.01F
FT STEWART     CLEAR     68  63  86 CALM      30.01S
ALBANY         CLEAR     68  63  84 CALM      30.03S
HUNTER AFB     CLEAR     67  64  90 CALM      30.00S
MOODY AFB      CLEAR     71  64  81 E5        30.02S
BRUNSWICK      CLEAR     68  64  88 CALM      30.02F


CITY           SKY/WX    TMP DP  RH WIND       PRES   REMARKS
BAINBRIDGE*    CLEAR     73  68  83 CALM      30.01S
MOULTRIE*      CLEAR     70  64  83 CALM      30.02S
VIDALIA*         N/A     70  63  78 S3        30.03S
WAYCROSS*      CLEAR     73  68  86 CALM      30.02S
DOUGLAS*       CLEAR     72  64  78 CALM      30.04F
$$


USA.gov is the U.S. government's official web portal to all federal, state and local government web resources and services.